Location: Central Coast
(33.3208°S, 151.2336°E)
Time: 18:18:15
(UTC+11:00)

N. Korean satellite - Visible Passes

Search period start: 19 October 2017 00:00
Search period end: 29 October 2017 00:00
Orbit: 459 x 517 km, 97.2° (Epoch: 18 October)

Date Brightness Start Highest point End Pass type
(mag) Time Alt. Az. Time Alt. Az. Time Alt. Az.
19 Oct 6.7 19:31:51 10° SSE 19:35:38 64° E 19:39:18 10° N visible
20 Oct 10.1 20:43:26 10° SW 20:45:27 14° WSW 20:47:28 10° WNW visible
21 Oct 9.1 20:19:06 10° SSW 20:22:20 27° WSW 20:25:29 10° NW visible
22 Oct 7.4 19:55:24 10° S 19:59:08 56° WSW 20:02:43 10° NNW visible
24 Oct 10.1 20:43:42 10° SW 20:45:38 14° WSW 20:47:32 10° W visible
25 Oct 9.1 20:19:18 10° SSW 20:22:29 26° WSW 20:25:35 10° NW visible
26 Oct 7.5 19:55:35 10° S 19:59:16 55° WSW 20:02:49 10° NNW visible
28 Oct 10.1 20:43:55 10° SW 20:45:44 13° WSW 20:47:32 10° W visible
